Temp
50 45 42 46 48 47 50 47 46 48 50 48 50 51 54 54 55 55 53 54 56 57 57 58 60 60 59 59 61 61 63 62 62 61 61 60 60 60 61 61 62 62 63 64
46 41 47 51 50 48 48 45 45 48 51 50 49 50 54 53 55 56 56 54 56 56 54 55 54 55 55 55 57 58 58 57 58 58 58 58 57 56 57 58 58 59 59 59
44 46 52 49 47 45 45 46 44 46 48 49 49 46 50 53 55 56 57 58 56 54 53 53 52 52 53 53 53 55 55 55 54 55 56 56 56 55 55 55 55 56 57 57
46 50 48 46 45 48 41 49 47 45 44 41 47 39 46 52 51 53 55 54 53 53 53 52 52 51 51 49 50 52 52 52 53 52 52 52 51 51 51 51 52 53 54 54
42 44 45 44 46 50 43 49 46 45 41 41 40 39 43 50 50 53 52 51 50 51 52 52 51 50 49 49 49 49 51 51 50 50 50 49 49 49 49 49 50 50 51 52
44 52 49 48 50 50 49 45 44 43 39 32 38 38 38 45 49 52 51 52 50 51 50 51 51 50 50 49 48 49 50 48 49 48 48 48 47 47 47 47 46 47 47 48
39 45 47 49 44 47 46 40 30 29 30 30 38 35 39 47 50 52 51 51 52 52 52 51 50 49 48 46 48 48 48 47 47 47 46 46 45 45 45 44 44 44 44 44
33 31 43 48 47 43 42 41 33 27 27 28 36 32 40 49 51 51 52 52 52 52 53 52 51 50 47 46 46 46 46 45 45 45 44 44 44 43 42 42 42 42 42 42
34 34 43 46 48 49 40 36 43 33 29 30 33 39 45 46 46 45 46 47 49 49 50 50 50 49 48 47 46 45 44 44 43 43 43 42 41 41 40 40 40 40 40 44
39 32 41 44 47 44 44 46 34 33 25 24 30 33 38 41 43 46 47 46 46 48 48 48 47 47 46 46 44 43 43 42 42 41 41 40 40 40 39 39 38 38 39 39
41 38 35 42 40 38 40 36 39 39 33 28 26 33 42 45 46 47 48 49 49 49 48 47 46 46 45 44 43 42 41 41 40 40 39 39 38 38 38 37 36 36 37 38
39 37 32 34 39 42 43 41 41 31 29 30 31 33 44 45 46 47 47 48 48 49 49 48 46 45 44 42 41 40 40 40 39 40 38 37 37 36 36 35 36 36 35 37
41 35 29 31 36 42 39 41 41 38 34 29 29 31 45 44 44 46 47 47 48 48 47 47 45 44 42 41 40 39 39 38 39 38 36 35 34 34 34 34 34 34 33 33
44 35 32 30 32 36 35 37 39 38 28 30 32 34 39 42 43 44 45 46 47 48 49 46 43 42 41 40 39 38 38 37 37 36 34 32 31 32 31 31 31 31 31 31
41 31 31 32 33 36 37 38 38 38 37 33 36 36 41 43 44 46 47 46 47 47 47 45 41 40 39 38 37 36 35 35 35 33 32 31 31 31 30 29 29 29 29 29
38 27 30 27 32 33 31 36 37 37 37 37 37 36 45 46 46 45 47 48 47 47 46 43 41 39 37 37 35 35 33 32 32 31 29 29 29 29 28 28 27 27 27 27
33 28 20 16 27 33 25 32 35 36 37 39 35 41 44 42 44 43 45 46 46 46 42 41 40 37 35 33 34 32 31 31 29 29 28 27 27 27 27 27 26 26 25 25
31 27 21 19 16 20 32 34 37 38 39 40 41 42 44 44 42 40 39 40 41 40 39 38 36 33 32 31 31 30 29 29 28 27 27 26 26 25 25 25 24 24 24 24
34 29 15 19 6 23 30 33 35 36 36 39 39 41 41 40 39 37 38 39 39 38 37 35 34 31 29 28 28 28 27 27 27 26 25 24 24 23 23 23 22 23 23 23
35 31 25 7 13 13 29 34 37 38 28 38 40 40 38 39 35 37 37 36 35 35 34 31 30 29 28 26 27 27 26 24 23 23 23 22 22 21 20 21 21 22 22 24
24 20 14 10 8 19 32 34 36 25 31 36 38 38 38 38 38 37 36 34 33 32 31 29 28 27 26 25 26 25 23 22 21 20 19 19 19 18 20 19 19 19 19 20
25 21 9 11 7 18 33 33 33 36 33 36 36 36 37 35 34 34 34 32 31 29 29 28 26 25 23 24 24 23 21 19 16 15 15 14 13 17 18 12 15 15 15 15
22 26 22 26 24 32 32 32 35 36 35 35 37 36 36 34 33 33 32 31 30 29 28 27 25 24 22 21 20 19 17 15 12 8 6 8 11 15 15 11 14 13 11 10
26 29 25 27 29 30 33 33 34 35 35 36 35 35 34 34 34 33 32 31 30 29 26 24 21 20 19 17 19 17 15 12 3 4 7 10 10 11 12 15 16 11 10 11
26 29 26 25 31 31 33 33 35 35 34 35 34 35 35 33 32 32 31 30 29 27 23 20 20 19 18 16 13 10 11 7 8 7 8 8 10 7 9 12 10 14 15 17
28 28 26 27 34 35 35 32 34 34 35 34 34 32 32 33 33 31 30 29 27 23 18 16 16 14 13 10 9 6 3 5 3 6 8 7 7 5 8 7 7 15 20 22
MSLP
1015.67 1015.83 1015.18 1015.57 1015.48 1015.69 1015.37 1015.76 1015.82 1015.79 1015.85 1015.62 1015.39 1015.13 1014.94 1015.22 1015.68 1016.39 1016.79 1017.07 1017.63 1018.08 1018.36 1018.31 1018.41 1018.55 1018.85 1019.10 1019.11 1019.26 1019.33 1019.64 1019.66 1019.91 1020.09 1020.11 1020.19 1020.17 1020.29 1020.31 1020.31 1020.11 1020.13 1020.03
1015.86 1014.94 1014.95 1015.05 1015.45 1015.51 1015.31 1015.89 1016.22 1016.34 1016.42 1016.18 1016.01 1015.59 1015.27 1015.23 1015.63 1015.87 1016.34 1016.93 1017.73 1018.45 1018.93 1019.19 1019.31 1019.37 1019.50 1019.86 1019.88 1019.95 1020.22 1020.30 1020.23 1020.32 1020.49 1020.62 1020.64 1020.72 1020.71 1020.78 1020.75 1020.70 1020.61 1020.63
1014.76 1014.53 1014.83 1015.04 1015.57 1015.70 1015.83 1015.58 1016.24 1016.52 1017.10 1016.92 1016.42 1016.19 1015.64 1015.60 1015.57 1015.89 1016.10 1016.78 1017.89 1018.63 1019.36 1019.79 1020.00 1020.33 1020.38 1020.55 1020.64 1020.70 1020.76 1020.91 1020.93 1020.87 1020.79 1020.94 1020.95 1021.01 1021.12 1021.26 1021.41 1021.36 1021.30 1021.20
1015.09 1014.59 1014.56 1014.90 1015.42 1015.50 1015.98 1016.16 1016.47 1017.13 1017.52 1017.29 1017.25 1016.43 1016.18 1015.95 1016.18 1016.38 1016.92 1017.14 1018.22 1019.24 1019.99 1020.23 1020.57 1020.94 1021.19 1021.36 1021.34 1021.25 1021.37 1021.46 1021.47 1021.43 1021.49 1021.63 1021.97 1022.29 1022.40 1022.28 1022.32 1022.21 1021.80 1021.63
1014.34 1014.43 1014.53 1014.95 1015.21 1015.59 1016.24 1016.39 1017.04 1017.69 1018.01 1018.22 1018.15 1018.23 1016.48 1016.63 1017.00 1016.92 1017.66 1018.23 1018.71 1019.52 1020.11 1020.49 1020.87 1021.42 1021.96 1022.04 1021.80 1022.20 1022.13 1021.78 1022.08 1022.16 1022.23 1022.35 1022.70 1022.92 1022.77 1022.61 1022.46 1022.55 1022.41 1022.20
1014.89 1014.37 1014.66 1015.01 1015.34 1015.82 1016.45 1017.06 1017.84 1018.54 1018.94 1019.03 1018.38 1018.29 1017.46 1016.95 1016.88 1017.05 1018.75 1018.67 1019.17 1019.63 1020.28 1021.05 1021.51 1021.50 1022.05 1022.62 1022.22 1022.61 1022.89 1022.81 1022.66 1022.88 1023.03 1023.13 1023.47 1023.45 1023.34 1023.25 1023.32 1023.23 1023.09 1022.91
1015.40 1014.69 1015.12 1015.19 1015.97 1016.67 1016.64 1017.23 1018.86 1019.50 1019.60 1019.32 1018.98 1019.05 1018.03 1017.41 1017.25 1017.66 1019.40 1018.52 1020.21 1019.81 1020.31 1020.87 1021.78 1022.34 1021.99 1023.11 1022.88 1023.15 1023.18 1023.50 1023.39 1023.45 1023.67 1023.86 1023.95 1023.98 1023.92 1023.86 1023.99 1023.93 1023.73 1023.52
1015.21 1015.56 1015.09 1015.11 1015.09 1015.63 1016.54 1016.59 1017.40 1018.44 1019.38 1019.74 1019.72 1018.69 1017.62 1017.23 1017.50 1018.58 1018.61 1019.98 1019.92 1020.11 1020.74 1021.00 1021.77 1022.89 1023.47 1023.36 1023.31 1023.62 1023.71 1023.85 1023.92 1023.99 1024.26 1024.39 1024.53 1024.65 1024.59 1024.57 1024.62 1024.60 1024.44 1024.29
1015.07 1015.49 1015.37 1015.14 1015.17 1015.69 1016.69 1017.07 1017.33 1018.22 1019.57 1019.50 1019.23 1018.24 1017.76 1017.72 1018.29 1018.60 1019.53 1020.66 1020.09 1020.37 1020.78 1021.73 1022.51 1023.18 1023.65 1023.86 1023.83 1024.12 1024.21 1024.54 1024.67 1024.79 1025.02 1025.27 1025.23 1025.27 1025.13 1025.31 1025.30 1025.00 1024.77 1024.43
1014.76 1015.49 1015.52 1015.57 1015.56 1016.37 1016.26 1016.99 1018.11 1018.48 1019.68 1019.75 1019.27 1018.40 1017.82 1018.01 1018.35 1018.91 1019.27 1019.60 1020.74 1020.94 1021.30 1022.30 1023.04 1023.68 1024.18 1024.37 1024.82 1024.66 1024.60 1025.01 1025.41 1025.55 1025.70 1025.85 1025.90 1025.78 1025.98 1026.05 1026.00 1025.70 1025.43 1025.01
1015.35 1014.89 1016.25 1015.52 1015.56 1015.91 1016.79 1017.56 1017.44 1017.88 1018.84 1018.97 1019.31 1018.49 1017.90 1017.80 1018.09 1018.24 1019.00 1019.79 1020.20 1020.79 1021.67 1022.58 1023.25 1024.01 1024.55 1024.95 1025.12 1025.34 1025.47 1025.60 1025.77 1026.00 1026.18 1026.17 1026.28 1026.39 1026.56 1026.55 1026.41 1026.12 1025.79 1025.49
1014.37 1014.82 1016.15 1016.43 1016.62 1016.37 1016.20 1016.66 1016.95 1017.71 1018.99 1019.09 1018.63 1018.65 1018.04 1018.05 1018.30 1018.75 1019.31 1019.82 1020.56 1021.03 1021.76 1022.75 1023.68 1024.47 1025.06 1025.62 1025.83 1025.77 1025.82 1025.86 1026.22 1026.45 1026.72 1026.88 1026.90 1026.99 1027.06 1027.09 1026.90 1026.54 1026.09 1025.68
1014.40 1015.44 1016.57 1017.15 1017.37 1017.03 1016.65 1016.79 1017.19 1017.54 1018.36 1019.23 1019.14 1018.97 1018.25 1018.18 1018.57 1019.00 1019.52 1020.19 1020.80 1021.47 1022.12 1022.99 1024.02 1024.88 1025.53 1025.99 1026.19 1026.18 1026.33 1026.52 1026.85 1027.07 1027.26 1027.13 1027.39 1027.55 1027.55 1027.31 1026.98 1026.73 1026.60 1026.09
1014.05 1016.06 1016.72 1017.04 1016.74 1016.69 1017.11 1016.90 1017.22 1017.56 1018.83 1019.46 1019.02 1018.91 1018.83 1018.67 1018.75 1019.32 1019.90 1020.22 1020.82 1021.44 1022.05 1023.18 1024.32 1025.11 1025.67 1026.30 1026.68 1026.82 1027.02 1027.14 1027.37 1027.53 1027.47 1027.81 1027.97 1027.97 1027.96 1027.71 1027.45 1027.18 1026.78 1026.52
1014.96 1017.35 1018.27 1018.43 1017.67 1017.16 1017.12 1017.25 1017.49 1017.81 1018.30 1018.89 1018.70 1018.58 1018.90 1019.04 1019.18 1019.42 1019.73 1020.37 1021.11 1021.67 1022.36 1023.44 1024.55 1025.44 1026.06 1026.67 1027.12 1027.46 1027.62 1027.76 1027.67 1027.79 1028.10 1028.43 1028.38 1028.12 1028.03 1028.04 1027.72 1027.56 1027.23 1027.07
1016.49 1018.54 1019.06 1019.83 1019.32 1018.52 1018.56 1018.07 1017.90 1018.01 1018.35 1018.56 1018.61 1018.67 1018.70 1019.09 1019.42 1020.06 1020.34 1020.79 1021.33 1021.83 1022.58 1023.79 1024.86 1025.83 1026.61 1027.19 1027.59 1027.81 1027.96 1028.07 1028.29 1028.52 1028.68 1028.65 1028.51 1028.42 1028.25 1028.24 1028.24 1028.04 1027.62 1027.27
1017.43 1018.95 1020.55 1022.22 1021.33 1020.24 1020.28 1018.88 1018.27 1018.42 1018.28 1018.37 1018.83 1018.55 1018.90 1019.40 1019.66 1020.29 1020.67 1021.20 1021.64 1022.05 1022.89 1024.03 1025.20 1026.30 1027.05 1027.39 1027.76 1028.08 1028.35 1028.58 1028.80 1028.91 1028.99 1028.97 1028.99 1028.89 1028.91 1028.95 1028.72 1028.24 1027.69 1027.32
1018.21 1019.71 1021.69 1024.04 1023.64 1022.47 1020.14 1018.94 1018.37 1018.25 1018.29 1018.29 1018.39 1018.74 1019.17 1019.64 1020.34 1020.91 1021.41 1021.76 1022.21 1022.79 1023.66 1024.77 1025.75 1026.68 1027.34 1027.72 1028.12 1028.57 1028.78 1029.01 1029.22 1029.30 1029.35 1029.36 1029.38 1029.30 1029.35 1029.01 1028.67 1028.38 1028.19 1027.94
1018.72 1020.14 1023.11 1024.49 1024.47 1022.73 1020.29 1019.15 1018.56 1018.35 1018.83 1018.71 1019.03 1019.35 1019.72 1020.18 1020.89 1021.69 1022.12 1022.42 1022.99 1023.65 1024.58 1025.48 1026.23 1027.02 1027.70 1028.20 1028.61 1028.91 1029.19 1029.33 1029.41 1029.51 1029.61 1029.73 1029.79 1029.72 1029.45 1029.32 1029.18 1028.90 1028.68 1028.08
1019.58 1020.32 1022.08 1025.07 1024.66 1023.01 1020.28 1019.15 1018.56 1018.36 1019.08 1018.99 1019.25 1019.71 1020.36 1021.03 1021.83 1022.28 1022.87 1023.35 1024.11 1024.78 1025.58 1026.29 1027.04 1027.59 1028.07 1028.47 1028.62 1028.93 1029.29 1029.71 1029.88 1030.14 1030.31 1030.39 1030.29 1030.04 1029.56 1029.76 1029.38 1029.06 1028.91 1028.29
1021.59 1022.43 1023.98 1025.00 1024.54 1022.41 1020.23 1019.37 1018.93 1019.38 1019.77 1019.26 1019.65 1020.16 1020.85 1021.50 1022.02 1022.47 1023.45 1024.25 1024.96 1025.64 1026.37 1027.05 1027.55 1027.87 1028.26 1028.55 1028.79 1029.38 1030.02 1030.35 1030.52 1030.74 1030.64 1030.65 1030.15 1030.25 1029.93 1029.54 1029.19 1029.38 1028.77 1028.47
1022.53 1023.37 1024.76 1025.04 1023.97 1022.11 1020.00 1019.82 1019.60 1019.49 1019.69 1019.71 1020.12 1020.59 1021.18 1021.76 1022.51 1023.16 1023.96 1024.81 1025.54 1026.17 1026.77 1027.27 1027.81 1028.23 1028.66 1029.08 1029.36 1029.83 1030.31 1030.52 1030.67 1030.71 1030.79 1030.55 1030.47 1030.17 1029.53 1029.51 1029.64 1029.35 1028.90 1028.54
1022.99 1022.75 1022.86 1022.73 1021.87 1020.85 1020.29 1020.02 1019.67 1019.67 1019.70 1020.23 1020.55 1021.08 1021.58 1022.32 1022.86 1023.34 1024.19 1025.10 1025.69 1026.31 1027.02 1027.58 1028.09 1028.40 1028.83 1029.29 1029.56 1029.89 1030.22 1030.76 1030.92 1030.73 1030.71 1030.55 1030.20 1030.11 1030.08 1029.89 1029.46 1029.16 1028.93 1028.83
1022.81 1022.56 1022.48 1021.88 1021.32 1020.80 1020.32 1020.05 1020.07 1020.10 1020.33 1020.56 1020.98 1021.51 1022.07 1022.66 1023.19 1023.70 1024.35 1025.07 1025.69 1026.35 1027.13 1027.61 1028.17 1028.61 1028.88 1029.26 1029.59 1029.91 1030.40 1030.63 1030.71 1031.01 1030.83 1030.66 1030.54 1030.45 1030.22 1029.89 1029.55 1029.39 1029.15 1028.74
1023.16 1022.79 1022.38 1021.87 1020.79 1020.59 1020.12 1020.12 1020.13 1020.45 1020.71 1021.05 1021.38 1021.75 1022.27 1022.96 1023.53 1024.01 1024.66 1025.17 1025.76 1026.40 1026.97 1027.40 1028.05 1028.39 1028.74 1029.25 1029.82 1030.06 1030.35 1030.61 1030.91 1031.05 1030.89 1030.81 1030.78 1030.77 1030.51 1030.18 1029.75 1029.34 1029.12 1028.62
1022.61 1021.91 1021.66 1020.82 1019.79 1019.74 1019.79 1019.80 1020.07 1020.79 1021.06 1021.40 1022.02 1022.40 1022.63 1023.19 1023.67 1024.01 1024.68 1025.13 1025.72 1026.26 1026.92 1027.46 1027.81 1028.24 1028.58 1029.08 1029.70 1030.02 1030.37 1030.68 1031.00 1031.09 1031.17 1031.26 1031.23 1031.11 1030.79 1030.56 1030.08 1029.46 1028.70 1028.25
Wind_Speed
4 5 9 12 11 1 7 7 7 2 1 1 4 3 3 2 3 7 7 7 7 6 4 5 5 6 7 7 6 5 3 3 1 0 1 1 3 2 2 3 5 5 4 5
5 9 6 9 7 3 10 12 9 3 3 3 1 3 0 2 5 6 9 8 8 6 5 6 7 7 8 5 6 7 7 6 5 2 2 2 2 2 2 3 5 6 6 6
5 6 9 9 9 10 5 16 10 5 3 2 3 2 1 2 1 3 4 7 6 9 9 6 7 6 6 7 6 6 6 6 6 5 2 2 2 3 4 4 4 5 7 6
4 3 11 11 9 9 8 4 8 7 6 11 2 8 4 2 4 5 6 9 9 9 5 6 6 6 6 5 6 7 7 6 6 6 5 5 3 2 2 2 3 5 7 7
6 10 14 13 8 7 3 13 9 4 5 3 2 4 4 3 6 5 5 7 8 8 6 7 7 7 6 5 6 6 6 8 7 7 6 5 5 2 2 3 6 6 6 7
2 7 7 3 10 4 10 10 10 5 3 2 4 3 4 8 6 3 2 6 5 8 9 7 5 6 7 6 6 7 6 7 8 7 8 8 7 5 5 5 4 4 4 4
4 13 5 5 12 12 12 10 4 3 3 2 6 3 4 6 2 3 8 9 4 7 8 9 7 5 8 5 6 6 7 7 7 8 8 7 7 7 6 5 5 6 5 4
5 5 10 5 9 10 17 5 5 5 4 3 4 4 5 6 3 3 6 7 4 10 7 9 8 5 4 5 6 6 7 7 7 7 7 7 7 4 4 6 4 4 3 4
5 2 1 1 5 12 5 3 1 6 2 3 4 4 2 5 5 8 10 9 10 5 7 8 6 5 4 5 6 6 7 7 7 8 7 7 7 7 6 7 5 4 5 5
4 6 2 1 8 4 3 5 4 2 4 1 2 3 3 4 10 11 13 10 8 6 9 7 6 5 4 5 5 7 7 8 7 7 6 6 7 8 7 7 8 7 5 6
7 3 2 2 1 7 6 2 1 5 2 5 4 4 2 4 7 13 10 10 11 9 8 7 6 5 6 6 6 6 7 7 7 7 7 8 7 7 6 6 6 6 6 7
1 5 4 3 1 0 0 7 4 4 3 2 1 1 2 4 4 6 6 7 6 8 8 7 6 7 6 6 5 6 6 8 6 6 7 7 7 6 6 5 5 5 6 6
4 2 5 4 4 3 3 3 4 5 3 1 4 3 3 4 5 5 9 8 7 6 7 6 7 6 6 6 5 6 6 7 6 6 5 6 6 5 5 5 6 7 7 7
5 5 1 7 4 6 5 6 4 6 4 4 3 3 0 4 7 7 6 8 9 8 8 6 7 6 6 5 5 6 6 5 5 5 6 6 6 5 5 6 7 7 7 7
5 4 3 4 5 3 5 10 8 5 5 5 6 7 6 5 7 6 7 7 8 8 7 7 7 6 6 6 5 5 5 4 4 6 6 6 5 5 5 7 7 7 7 6
2 3 3 7 9 6 4 5 8 5 4 6 5 3 5 5 6 4 5 6 7 7 6 8 8 8 7 6 5 4 4 5 5 5 5 4 5 5 6 6 6 5 6 6
4 7 4 2 5 5 5 7 6 4 3 8 6 4 6 3 3 2 4 5 7 6 8 10 9 7 6 5 4 5 4 4 5 5 5 5 5 4 4 4 5 6 7 7
6 6 4 3 3 2 4 3 1 5 5 3 5 5 5 4 5 4 2 2 3 6 8 9 8 6 5 4 5 4 4 4 4 3 3 3 4 4 4 5 5 6 5 6
5 6 5 6 3 4 2 4 6 7 6 4 5 4 2 2 4 2 3 2 5 6 6 6 6 5 5 5 3 4 3 3 2 3 3 4 4 4 4 5 6 5 5 5
6 8 7 4 7 5 5 2 3 3 4 6 6 6 6 6 3 4 4 4 6 7 6 7 6 4 5 2 3 4 2 0 1 2 3 3 3 4 4 5 5 4 4 6
4 5 5 3 3 8 6 3 1 8 7 5 6 6 7 4 3 4 7 5 5 5 7 6 6 6 5 3 3 4 3 5 3 2 3 3 3 4 3 3 3 5 4 5
4 5 3 3 5 4 5 3 8 4 3 6 5 3 4 4 5 6 6 7 7 6 6 5 5 5 5 4 5 6 6 2 1 2 2 3 3 3 4 3 3 3 3 4
3 4 4 5 6 1 2 2 2 2 5 4 6 3 5 5 5 7 6 7 7 8 6 5 6 6 5 5 4 4 3 3 1 2 3 2 3 4 4 3 4 3 3 3
2 1 1 5 1 5 4 1 2 2 4 5 4 7 8 6 6 7 5 6 7 7 7 5 6 6 6 5 4 2 4 3 3 1 2 2 2 4 3 3 3 2 3 3
4 3 3 5 6 4 6 7 6 5 3 4 4 6 8 7 6 7 7 7 7 7 5 5 7 6 6 6 5 4 4 4 2 1 2 2 2 2 2 3 2 4 3 4
6 8 6 7 6 4 2 1 7 6 7 7 6 4 4 7 8 5 7 6 6 6 4 4 6 4 4 4 4 4 4 4 3 1 1 1 2 2 3 3 4 6 8 11
Wind_Direction
198 179 195 188 194 221 190 197 213 144 50 190 199 197 260 198 166 172 192 180 188 205 37 57 66 99 98 51 76 53 106 15 103 83 231 251 254 348 24 26 1 7 4 16
172 217 190 162 157 134 163 189 200 123 333 152 235 191 210 188 222 198 190 179 168 122 77 65 69 62 66 81 66 62 58 47 38 40 19 27 35 43 61 24 33 26 28 21
180 169 152 150 166 160 187 189 176 190 162 63 117 298 148 220 145 123 124 128 123 140 129 104 84 75 74 65 55 65 64 53 39 29 49 36 36 26 25 23 17 12 14 20
213 167 157 153 177 167 190 157 131 135 178 210 141 239 253 158 232 152 118 110 116 117 100 98 92 69 63 57 57 70 68 61 46 36 54 61 65 56 14 31 17 9 21 28
163 169 163 162 165 151 155 133 104 78 88 131 153 195 185 130 230 181 157 117 122 125 125 119 106 85 49 47 78 52 55 66 46 51 61 73 69 44 23 30 36 20 16 32
237 165 152 151 140 122 118 104 64 50 74 226 176 181 231 186 169 106 349 106 128 128 113 78 58 100 81 32 50 65 63 47 51 51 47 59 62 47 47 29 26 10 4 23
314 162 118 137 132 135 121 121 130 152 183 220 151 131 249 272 235 66 183 109 175 132 122 111 90 67 72 83 67 72 66 52 51 57 50 48 53 52 54 37 22 15 3 7
173 155 173 171 175 167 160 171 144 154 170 141 167 207 245 206 278 175 106 136 143 134 138 119 113 111 117 91 84 81 73 63 49 55 53 46 41 43 46 36 29 25 21 360
153 152 98 239 129 153 156 142 53 106 42 96 186 256 165 128 155 162 166 188 156 112 100 120 123 127 89 88 71 82 80 67 53 52 51 43 42 42 43 35 27 26 17 4
157 109 52 226 102 29 154 136 113 5 125 189 281 279 209 159 156 161 155 154 158 144 123 125 136 139 113 86 87 74 71 73 66 64 57 57 48 45 38 36 25 19 4 3
177 132 122 224 229 142 137 191 121 113 147 156 140 246 320 176 182 164 160 162 154 142 139 150 143 118 105 88 79 80 74 75 65 61 56 55 45 41 35 34 14 8 357 358
68 118 112 82 2 180 275 159 149 117 229 34 116 229 347 287 218 157 151 146 138 144 147 144 136 127 106 99 91 81 73 73 67 67 60 51 44 33 29 16 359 350 353 348
198 82 103 55 28 342 150 139 124 108 69 175 119 248 355 60 126 165 155 156 154 150 155 143 135 130 119 106 87 75 67 71 70 74 73 57 41 25 11 3 0 3 355 358
100 79 9 176 155 135 156 138 133 105 103 178 195 152 315 48 109 120 132 152 159 172 189 143 122 122 117 110 98 80 68 66 77 73 58 46 26 15 5 1 4 4 2 1
94 117 88 22 22 89 136 159 154 143 152 156 193 163 182 149 125 136 139 145 169 188 179 146 136 132 120 102 88 76 70 60 68 62 49 31 15 15 11 7 1 353 358 349
57 135 106 26 5 54 78 127 126 113 126 78 113 112 159 153 104 116 161 182 204 200 173 141 135 129 123 115 106 90 68 56 52 58 48 24 15 8 8 358 345 338 340 344
89 126 88 299 347 55 4 212 154 142 166 139 158 204 143 168 147 174 162 182 212 203 153 147 136 120 115 105 92 77 65 70 60 54 34 18 0 352 349 331 334 349 350 343
117 88 71 151 16 158 249 328 222 132 178 164 98 133 151 156 126 95 24 280 133 129 126 120 123 120 115 90 75 82 70 62 62 53 30 7 350 345 338 342 347 338 337 333
33 113 88 128 147 280 358 177 154 157 226 188 171 162 211 87 91 38 19 90 132 120 107 111 118 115 111 101 104 108 92 81 53 27 5 353 336 318 326 341 339 331 330 334
41 49 103 68 112 179 237 150 168 112 309 171 170 151 144 144 130 252 147 97 97 103 111 120 114 110 122 129 127 135 154 131 335 340 311 302 314 329 346 335 333 328 332 345
16 11 103 93 106 289 238 205 190 95 232 140 131 134 137 157 179 139 130 109 119 127 134 138 143 153 162 161 156 184 187 217 218 288 321 332 355 324 324 346 336 326 331 331
145 126 146 109 74 291 162 73 161 206 84 128 115 112 108 110 115 137 150 147 149 145 144 155 152 172 182 192 188 198 206 166 45 354 334 350 326 331 359 348 300 304 326 341
48 159 181 194 201 311 294 5 346 130 132 150 127 136 129 138 188 174 178 171 178 180 179 178 182 180 193 195 188 186 183 157 156 36 2 335 348 353 338 312 332 347 356 340
310 204 100 53 233 233 233 231 222 181 137 147 147 165 167 182 198 201 182 184 188 183 187 181 178 205 214 192 194 176 152 148 109 43 338 322 2 338 326 335 338 327 328 324
204 121 162 281 269 269 236 212 203 208 191 166 169 173 198 191 211 198 201 201 200 195 191 172 195 208 219 176 182 178 163 136 135 222 287 326 320 308 315 344 308 323 284 287
185 186 166 216 222 156 209 106 177 194 216 222 192 200 199 193 214 192 215 206 194 194 174 186 214 209 220 180 185 190 172 168 168 251 290 313 317 334 348 342 320 322 319 327